GOES 9 [-]

Last updated on Nov. 20, 2019, 4:19 a.m. UTC

1 23581U 95025A   19323.35118675 -.00000009  00000-0  00000+0 0  9993
2 23581  11.8332  31.0851 0000640  81.1708 288.5378  0.98799811 89024
UTC
Height (km)
Latitude
Longitude
Inclination
Orbital Period
UTC large
Height (km)
Speed (km/s)
/
Latitude / Longitude
Inclination (degrees)
Orbital Period (minutes)
Azimuth
Elevation
Range (km)
Doppler Factor
iOS Compass Heading
iOS Angle

Next 30 passes for location: Hong Kong

Rise time Rise Azimuth (degrees) Set time Set Azimuth (degrees) Duration Max altitude (degrees)

No matching passes for this satellites